Theta_e
360 362 361 359 359 361 362 361 357 354 352 351 350 351 351 351 349 348 349 349 350 353 355 354 354 355 354 353 353 353 355 357 356 358 361 361 361 360 360 362 362 361 361 359 357 354 353 354 354 354 353 352 353 352 351 353 353 353 352 352 352 353 356 357 358 359 357 354 353 351 351 353 352 355 357 355 354 356 354 355 354 354 359 363 363
359 361 362 360 360 360 361 361 360 356 352 351 350 350 351 352 351 349 348 350 350 351 353 353 353 354 354 353 353 353 354 357 356 356 359 361 361 359 359 361 363 362 360 360 360 358 356 356 356 355 354 353 354 353 351 350 350 350 350 350 350 350 353 357 358 358 357 357 357 354 353 355 355 356 357 357 356 356 356 356 354 352 352 356 360
356 359 362 362 361 361 360 359 360 358 353 351 350 349 350 353 352 351 349 349 350 350 352 351 351 353 353 353 353 354 354 356 357 357 357 359 361 359 358 358 360 360 360 360 360 359 358 358 357 356 354 353 354 353 351 350 349 348 348 348 349 349 351 356 359 359 357 357 358 356 354 356 356 355 356 358 357 358 359 357 354 352 351 351 354
355 357 360 361 361 361 360 358 357 356 353 351 350 348 348 350 352 352 349 346 348 350 351 350 351 353 354 354 354 355 355 356 358 357 357 358 360 360 359 358 358 359 358 358 357 357 358 358 357 356 353 353 354 354 353 352 350 349 349 349 350 351 351 354 358 361 361 360 359 358 358 359 359 357 357 357 357 356 357 357 356 355 355 352 350
353 356 359 361 360 360 361 358 355 355 353 350 349 348 347 347 349 351 350 346 345 348 350 350 350 352 354 354 355 355 356 357 358 357 356 356 358 359 358 358 358 358 358 358 356 356 356 357 357 356 355 354 355 356 355 353 352 351 350 351 352 353 354 354 357 360 362 363 362 361 362 362 362 361 359 357 356 354 353 355 357 357 359 358 354
353 354 357 359 359 359 361 359 356 354 353 351 348 347 346 345 346 349 350 347 344 344 348 350 350 351 354 355 354 355 357 357 358 358 356 354 356 357 355 356 356 356 356 357 357 356 356 356 356 356 356 355 356 357 356 354 355 354 353 353 353 354 355 357 358 360 362 363 363 362 362 361 361 363 361 358 358 356 353 351 352 355 360 361 359
353 354 356 356 356 358 360 360 358 354 353 353 349 347 346 344 344 345 347 348 346 343 345 348 349 350 352 355 353 353 356 357 358 359 357 354 353 353 352 352 352 353 353 354 354 354 354 355 356 356 355 356 356 357 357 356 357 357 356 356 355 356 357 358 360 361 363 363 364 362 361 361 360 361 361 359 359 360 360 358 358 357 358 359 359
354 354 354 355 355 357 358 359 359 357 355 355 352 350 347 346 345 344 344 347 347 345 343 345 349 350 350 352 351 350 353 356 357 358 359 356 352 351 351 351 350 351 351 352 351 352 352 353 354 355 355 355 356 357 356 357 358 359 359 359 359 359 359 359 359 361 362 363 363 362 359 359 359 358 358 357 358 362 362 360 360 360 358 357 358
355 353 353 354 355 357 358 359 359 359 357 356 355 354 350 348 348 346 344 345 347 346 344 343 346 349 350 351 350 348 349 352 355 357 358 359 354 350 351 352 350 349 349 350 349 349 350 350 351 352 353 354 355 356 356 356 357 358 359 360 360 361 361 361 360 360 362 362 361 359 358 358 359 359 359 359 359 360 360 357 356 357 357 356 355
355 353 352 352 355 358 359 359 359 359 359 358 358 358 356 352 350 348 347 346 346 346 346 344 344 347 350 352 352 349 346 348 352 354 356 358 356 351 349 351 352 350 348 349 349 347 347 348 348 349 351 353 354 355 355 355 355 356 358 360 360 361 362 363 362 361 361 361 360 358 357 357 357 357 356 355 353 351 352 354 356 356 356 355 355
355 355 354 352 353 357 359 360 360 359 360 360 359 359 359 357 353 352 350 349 348 348 348 348 345 345 347 350 352 353 348 346 348 351 353 355 356 353 349 349 351 352 351 349 348 347 346 346 346 347 348 351 353 354 355 355 355 355 355 356 359 362 363 363 363 361 359 359 359 358 357 356 355 354 353 351 348 345 346 351 354 355 357 357 358
353 352 352 352 352 354 356 359 361 361 360 361 360 360 360 359 357 356 354 352 353 352 351 351 350 347 346 346 349 353 352 348 346 347 351 352 352 352 349 346 348 350 352 351 349 348 346 345 344 344 346 349 352 355 355 354 354 353 351 350 352 357 362 364 364 363 361 360 359 358 357 357 356 355 354 352 350 348 350 353 354 356 358 359 359
352 352 351 351 352 353 353 357 360 362 361 361 361 360 361 361 360 358 356 356 356 356 356 354 354 353 350 347 347 348 351 352 349 347 349 349 349 349 347 345 345 346 348 349 349 349 347 345 344 343 343 344 349 354 357 357 355 352 350 347 345 347 352 356 358 359 361 362 362 361 360 359 358 358 357 355 355 356 358 358 356 356 358 359 359
350 351 351 350 352 352 353 355 357 359 360 360 361 361 360 361 361 359 358 357 357 358 358 357 357 357 356 353 351 349 349 352 352 350 348 348 349 347 345 344 343 344 346 347 347 348 349 347 346 345 344 343 347 352 358 361 361 358 354 349 345 342 342 345 347 348 350 352 355 357 359 360 361 362 361 360 360 361 362 361 359 359 359 360 360
345 346 348 350 350 350 351 352 353 355 357 357 359 360 360 360 360 360 358 356 357 358 359 359 359 358 358 357 355 353 351 351 352 353 351 349 348 348 347 345 342 341 343 345 346 348 349 349 349 348 347 346 347 350 355 361 366 366 363 356 349 345 344 342 341 342 343 343 344 347 350 353 357 360 360 362 363 363 364 363 363 363 363 364 363
342 342 343 345 346 346 348 350 352 353 354 355 356 357 358 359 359 359 358 357 356 357 357 359 359 359 359 359 357 355 354 352 352 353 353 352 350 349 348 348 346 344 342 342 345 347 349 351 351 350 351 350 349 349 351 357 364 368 369 366 360 356 353 348 343 341 341 342 342 343 345 347 351 354 355 357 360 362 363 363 364 364 364 365 364
339 340 340 340 341 343 345 348 350 352 353 354 356 355 354 355 355 356 357 356 354 353 354 355 357 359 358 358 359 358 356 355 354 352 353 353 353 351 350 350 351 351 348 345 345 346 347 350 351 352 353 353 353 352 351 353 359 363 366 368 366 363 360 357 353 350 348 347 345 344 344 344 346 348 351 354 355 357 360 361 360 359 358 359 358
336 337 338 339 340 342 344 346 348 349 351 353 354 353 351 351 353 354 354 354 353 353 353 352 351 353 355 356 358 358 357 357 356 355 353 352 353 352 351 353 354 355 355 353 351 349 348 349 350 353 354 354 354 355 354 352 355 360 362 363 363 363 361 359 357 356 355 355 353 352 351 348 346 345 346 348 350 352 356 359 357 353 351 353 353
334 335 336 336 339 341 342 344 346 347 348 349 350 351 351 350 352 354 354 354 354 355 356 354 351 351 352 353 355 354 356 357 357 357 356 354 353 352 352 355 356 357 357 357 355 354 352 350 350 351 353 355 355 356 356 354 355 358 359 359 359 359 357 356 356 356 357 358 358 357 356 354 352 350 348 346 345 347 351 354 355 353 351 352 352
333 335 335 336 337 339 341 342 343 343 345 346 347 349 350 350 350 351 352 354 355 355 355 355 355 354 352 353 354 354 354 355 355 357 357 356 355 353 352 355 357 357 358 358 358 358 357 355 354 351 351 354 355 357 357 356 356 358 360 359 358 356 353 352 353 354 355 358 361 361 360 360 359 358 356 354 350 347 345 347 351 354 353 353 352
332 333 334 335 336 338 339 340 341 341 344 345 344 343 344 345 345 346 348 351 354 356 356 355 356 356 355 353 354 354 355 355 354 355 356 357 356 354 353 355 356 357 359 359 359 360 359 359 358 356 354 353 353 356 357 357 356 358 360 360 358 356 354 353 353 353 354 356 359 361 362 363 364 363 362 361 359 355 351 348 349 351 353 352 351
331 331 332 333 335 337 338 339 340 341 342 344 343 339 338 339 339 340 343 346 349 354 356 356 357 357 357 355 354 354 355 355 354 354 355 356 356 356 355 355 356 358 359 360 361 361 361 361 360 359 358 356 354 354 355 356 356 357 359 359 358 357 357 357 356 356 357 357 358 359 360 361 361 362 361 360 360 360 358 357 355 354 354 352 352
330 331 331 332 333 334 336 337 339 340 341 343 343 342 343 342 341 340 342 345 349 352 355 357 357 357 357 357 357 355 355 355 355 355 356 356 355 356 356 356 355 357 358 360 361 361 361 361 361 361 360 359 358 356 355 355 356 356 355 355 356 357 358 359 359 359 360 360 359 360 360 359 358 358 357 357 356 355 355 356 357 358 357 355 354
330 330 331 331 332 332 333 335 337 339 341 342 343 344 345 346 346 346 346 347 349 351 352 354 356 357 357 358 358 358 356 355 356 355 356 356 355 355 356 356 355 355 356 357 359 360 361 361 361 362 362 360 360 359 358 358 357 356 355 354 353 355 356 358 359 359 360 361 361 360 360 359 358 357 356 356 356 355 354 353 353 355 356 356 355
330 330 330 331 331 330 331 332 334 338 340 340 342 343 344 346 348 349 348 348 350 351 353 354 356 357 357 357 358 358 358 356 356 356 356 357 356 355 355 355 355 356 355 355 355 357 360 361 361 361 361 361 361 360 360 360 359 358 357 355 354 354 355 356 356 357 358 359 360 360 359 359 358 358 357 357 357 357 358 357 355 354 355 356 356
330 330 330 329 328 329 330 331 333 335 336 338 340 342 343 345 347 347 348 350 351 353 354 354 356 357 357 356 357 357 357 357 357 356 355 355 356 355 354 354 354 355 354 354 354 353 355 357 359 359 359 360 360 360 360 360 359 359 358 357 355 354 354 355 356 356 358 358 359 360 360 360 359 358 357 358 358 358 359 360 359 359 357 358 359
328 329 329 329 328 328 330 331 332 333 334 336 338 339 340 343 344 345 347 348 348 347 350 352 354 354 356 356 356 356 356 355 355 354 354 354 354 355 354 353 352 352 352 353 352 349 348 350 353 354 356 358 358 359 359 358 358 358 357 357 356 354 353 354 355 356 357 358 358 360 360 360 360 358 358 359 359 360 361 361 361 362 361 362 362
327 328 329 329 329 328 329 331 331 331 331 333 334 336 338 340 341 343 344 344 341 338 340 344 346 347 350 352 353 354 354 354 354 354 354 354 354 354 353 353 352 352 351 351 350 348 347 348 349 350 353 356 356 357 357 358 357 357 357 356 356 355 354 354 354 355 357 358 359 360 360 360 360 359 360 361 361 362 364 364 363 363 363 364 364
326 327 328 329 329 329 329 329 328 329 330 331 332 334 336 336 337 338 339 338 336 334 333 336 338 339 342 345 347 349 352 353 354 354 353 353 353 353 352 352 353 353 352 351 350 348 347 347 348 348 352 356 357 357 357 358 357 357 357 356 356 355 354 354 354 355 356 358 359 360 360 361 360 360 360 361 362 363 365 366 366 365 365 365 364
325 326 327 328 328 328 328 328 328 329 330 331 332 333 333 333 334 335 336 335 334 332 331 332 333 335 336 338 341 343 345 348 350 351 351 351 352 354 354 354 354 355 354 353 351 349 348 347 348 348 351 354 357 358 359 359 358 358 357 357 357 357 356 356 355 355 356 356 358 359 360 361 361 361 361 362 362 363 364 364 366 366 367 366 365
324 324 325 326 326 327 327 328 329 330 330 331 331 331 331 331 332 333 334 335 334 333 332 332 333 334 334 335 337 338 340 342 343 345 347 349 351 354 355 356 356 356 355 353 351 350 348 347 347 349 351 353 356 359 360 360 360 359 357 357 358 358 358 357 357 356 356 356 357 358 359 361 361 362 362 362 362 363 362 363 364 365 366 366 366
323 323 323 324 325 325 326 327 328 328 329 329 330 330 330 331 331 331 333 334 334 334 334 333 333 334 335 336 338 340 341 342 344 345 347 349 353 355 357 357 357 357 356 354 352 350 350 347 347 349 350 351 353 356 359 361 361 360 358 358 358 358 358 358 358 358 358 357 357 357 358 359 360 361 362 362 362 362 362 362 363 364 365 365 365
324 324 323 323 323 324 324 325 326 327 327 327 328 329 329 329 330 330 331 332 333 334 335 334 334 335 335 335 336 338 340 342 344 345 346 347 350 352 355 357 357 356 356 355 353 351 350 349 349 350 351 352 352 354 358 361 361 361 360 359 358 359 359 359 359 359 359 358 358 358 359 359 359 360 360 361 361 361 361 360 361 362 363 365 365
324 323 323 323 322 323 324 324 324 325 325 325 327 328 328 328 329 329 330 330 331 334 336 336 336 336 334 333 335 339 341 342 344 346 346 346 347 348 350 354 356 356 356 355 352 350 351 352 353 353 353 353 355 357 360 361 362 361 361 361 360 359 359 360 360 360 360 360 360 359 360 360 359 360 360 360 361 361 361 360 360 360 361 362 363
323 323 322 322 321 322 322 323 323 323 324 324 325 326 327 328 328 328 329 329 330 332 334 335 337 337 334 334 337 340 341 343 346 348 348 349 350 350 350 352 354 354 354 354 352 351 352 355 358 360 359 358 359 361 362 362 362 362 361 361 361 361 360 360 361 362 362 361 361 361 360 361 361 360 360 360 360 361 361 360 360 360 360 361 361
322 322 321 321 321 321 321 322 323 323 323 323 323 324 326 327 327 328 329 329 330 331 332 333 335 335 334 335 337 337 338 341 344 346 347 348 349 350 350 351 352 353 353 353 354 353 354 357 360 361 362 362 362 363 363 363 363 363 362 362 362 361 361 361 361 362 362 362 362 362 362 361 362 361 361 361 360 360 360 360 360 361 361 361 362
320 320 320 320 320 320 320 321 321 321 321 321 322 323 325 326 328 328 328 329 329 330 330 330 331 332 334 336 336 335 335 335 336 338 341 344 346 348 348 349 352 354 355 356 356 356 356 358 360 361 362 362 362 363 364 363 363 363 363 363 363 363 363 363 362 362 362 363 363 364 363 363 363 362 362 362 361 360 361 360 361 361 361 361 361
319 319 319 319 319 318 318 319 319 319 320 320 322 323 324 326 327 327 328 328 329 329 329 329 329 330 332 334 333 331 330 330 331 334 337 340 342 345 347 348 350 352 356 357 358 359 359 360 361 361 362 362 362 362 363 363 363 363 363 364 364 364 364 364 363 364 364 364 364 364 364 364 364 363 363 363 362 362 361 361 361 361 360 360 360
318 318 318 317 317 317 317 318 318 319 319 320 322 323 324 325 325 326 327 327 328 328 328 327 327 328 330 330 328 326 326 328 331 333 334 336 339 342 346 348 350 351 354 356 357 358 359 360 361 361 362 362 362 362 363 363 363 364 364 364 364 364 364 364 364 365 365 365 365 365 364 364 364 363 364 364 363 362 362 361 361 361 360 359 359
316 317 317 316 316 316 316 317 318 318 319 320 321 322 323 324 324 325 325 325 326 326 326 326 326 327 327 326 323 321 321 324 327 329 331 333 335 338 341 345 348 351 353 354 356 358 359 359 360 361 361 361 362 362 363 363 363 363 363 363 364 364 364 364 365 365 366 366 365 365 365 365 365 364 364 364 364 363 362 361 361 361 360 359 359
314 314 315 315 315 315 316 317 317 318 319 319 320 321 322 322 323 323 323 324 324 324 324 324 324 325 324 322 320 318 318 320 324 327 330 332 333 335 337 340 342 344 347 349 351 354 355 357 358 360 361 362 362 362 363 363 364 364 363 362 363 364 365 364 364 365 365 365 365 365 365 366 366 365 364 364 363 364 363 362 362 361 360 359 358
312 312 312 313 314 314 315 316 317 317 318 319 319 320 320 321 321 322 322 322 323 323 323 323 323 323 322 320 318 316 316 319 323 325 327 328 328 329 331 333 333 333 334 336 338 341 344 347 351 353 355 357 359 361 362 362 361 361 360 359 361 363 364 365 364 365 365 365 365 364 363 364 365 365 365 364 363 363 363 363 362 362 361 360 359
310 310 311 312 313 314 315 315 315 316 316 317 318 319 319 319 319 320 320 321 321 321 322 321 321 321 320 318 316 315 316 319 320 321 321 321 321 322 323 323 324 325 326 327 328 330 334 337 341 344 346 347 349 351 354 354 355 356 357 358 359 360 362 363 363 364 365 365 364 362 361 361 362 363 364 364 364 364 363 363 362 362 361 360 359
309 309 310 310 311 312 313 314 314 315 315 316 317 317 318 317 317 318 319 319 320 320 320 320 319 319 318 317 315 314 314 315 316 315 315 315 315 316 316 316 317 320 322 322 323 326 329 331 334 337 340 341 343 344 345 346 347 348 350 352 355 357 360 361 362 362 362 362 362 362 362 362 362 361 362 363 363 363 363 363 363 362 361 361 360
308 308 309 309 310 311 312 312 313 313 314 315 315 316 316 316 317 317 317 318 318 318 318 318 317 317 316 315 313 312 311 312 312 312 311 312 312 312 311 310 311 314 316 318 320 322 324 325 327 329 332 335 338 339 341 341 342 341 342 344 347 350 352 353 355 357 358 358 358 360 361 361 360 359 358 359 361 362 363 362 362 362 362 361 361
307 307 308 308 309 310 310 311 311 312 313 314 314 314 315 315 315 316 316 316 316 316 315 315 315 315 314 313 311 310 309 309 309 309 309 309 309 309 308 307 307 308 310 313 315 317 318 319 320 322 324 326 329 331 334 336 337 338 339 340 342 343 343 345 348 351 352 352 353 354 355 357 358 358 358 358 360 361 361 360 361 362 361 361 359
306 306 307 307 308 308 309 309 310 311 312 312 312 313 313 313 313 314 314 314 314 314 313 313 313 312 311 310 309 308 308 308 307 307 307 306 306 306 306 305 305 305 306 308 310 311 313 314 314 315 316 318 320 322 325 327 330 332 333 335 336 338 339 340 343 345 346 347 348 349 349 350 352 354 355 357 358 358 358 358 358 359 360 360 359
305 305 306 306 307 307 308 308 309 310 310 310 311 311 311 311 312 312 313 313 313 312 312 312 311 310 309 308 308 307 306 306 306 305 305 304 304 304 304 303 303 304 304 305 305 306 308 310 311 312 312 313 314 315 317 319 321 323 324 326 328 330 332 333 335 337 338 340 342 344 345 346 346 347 348 350 353 354 355 356 357 357 358 358 359
304 305 305 305 305 306 307 307 308 308 308 309 309 309 309 309 310 310 311 311 311 310 310 310 309 308 307 306 306 305 305 305 305 304 303 303 302 302 302 302 302 303 303 304 303 304 305 307 308 309 309 310 310 310 312 313 315 316 318 320 322 324 326 328 329 331 333 335 337 338 341 342 342 342 342 344 346 349 351 352 353 354 355 356 357
304 304 304 304 304 305 306 306 306 307 307 307 307 307 307 307 308 308 309 309 309 308 308 308 307 306 306 305 304 304 304 304 304 303 302 301 301 301 302 302 302 302 302 302 302 302 303 303 304 304 304 305 305 306 307 308 309 311 313 315 317 319 322 324 325 327 328 330 331 333 334 336 336 337 338 340 342 344 346 348 349 350 351 353 353
303 303 303 303 303 304 304 304 305 305 305 305 306 305 305 306 306 306 307 307 307 307 307 306 306 305 304 304 303 303 303 303 302 302 301 300 300 301 301 301 301 301 301 301 301 301 301 301 301 301 301 302 302 303 304 304 306 308 310 311 312 314 316 319 321 323 324 326 327 328 329 330 332 333 334 335 337 338 340 342 344 346 348 349 350
Wind_Speed
22 23 22 22 21 21 22 22 22 21 20 20 20 19 18 18 17 17 17 17 16 16 16 16 16 15 15 14 14 13 13 13 13 13 12 11 11 10 9 10 11 11 10 10 10 9 9 10 10 10 10 10 9 9 9 9 9 9 8 8 8 7 6 5 5 5 6 6 6 6 6 6 6 5 6 7 7 7 7 7 9 10 8 8 9
22 22 22 22 22 22 22 22 22 21 20 20 21 20 19 19 18 18 17 18 18 17 18 17 17 16 15 15 14 14 14 14 14 13 13 13 12 11 11 11 12 12 11 11 11 10 10 10 11 11 11 11 11 11 10 10 11 11 10 10 10 9 8 7 6 6 6 6 6 7 7 6 6 6 6 8 7 8 8 8 8 8 5 6 9
22 22 22 22 23 23 22 21 22 22 22 21 21 21 21 20 19 19 19 19 19 19 18 18 18 18 17 16 16 15 15 15 15 15 14 14 14 13 12 12 13 13 12 13 12 12 11 12 12 12 12 12 12 12 12 11 11 11 11 11 10 9 9 8 7 7 7 7 7 8 7 6 7 8 8 8 8 8 8 8 8 8 7 8 9
21 23 23 22 23 23 22 22 22 22 22 22 22 22 22 21 20 21 20 20 19 19 19 19 19 19 19 18 18 18 17 17 16 16 15 15 15 14 14 13 14 14 14 14 13 13 13 13 13 13 12 12 13 13 12 12 12 11 11 10 9 9 8 8 9 8 8 8 8 8 8 8 9 9 8 8 8 8 9 9 9 8 8 9 9
18 21 21 21 22 23 23 23 23 23 23 22 22 22 22 22 22 21 21 21 20 20 20 20 19 20 20 20 20 20 19 19 18 17 17 16 16 15 15 14 14 14 14 14 14 14 14 14 14 14 14 13 13 13 13 13 13 12 12 12 11 11 11 10 10 10 10 10 10 9 9 10 10 10 9 9 9 9 9 9 9 8 8 8 8
21 23 21 19 20 21 22 23 23 24 24 23 23 23 22 22 22 22 22 22 22 21 21 21 21 21 21 21 21 21 21 20 20 19 18 17 17 16 16 16 15 15 15 15 15 16 16 16 15 15 15 15 15 15 14 14 14 13 13 13 13 12 13 13 12 12 12 12 11 11 11 11 11 10 9 9 9 9 10 10 9 9 8 8 8
15 18 21 20 19 18 20 21 22 23 23 23 23 23 23 23 23 22 22 23 23 23 22 22 22 22 22 22 22 22 22 22 21 21 20 19 18 18 17 17 17 16 16 16 17 17 17 17 17 16 17 17 16 16 15 15 14 14 14 14 14 13 13 13 13 13 13 13 12 12 12 11 11 10 9 9 9 9 10 10 9 8 7 9 9
11 11 13 15 17 18 20 20 20 21 22 23 23 23 23 23 23 22 22 23 24 24 24 23 23 23 23 23 23 23 23 23 23 22 22 21 20 19 19 19 18 17 17 17 17 17 17 18 18 18 18 18 18 17 16 16 15 15 15 15 14 15 14 14 13 13 13 13 13 12 12 11 11 10 10 10 10 10 9 9 9 8 8 10 10
10 9 10 11 14 17 18 18 18 18 20 21 22 23 23 23 23 23 23 23 23 23 24 24 24 23 23 24 24 24 24 24 24 24 24 23 22 21 20 20 19 19 18 18 18 17 18 18 18 19 20 20 21 20 18 17 16 16 15 15 15 15 15 14 14 13 13 13 13 12 12 12 11 11 11 10 10 10 9 9 9 9 9 11 11
9 6 9 15 16 14 14 16 17 17 18 19 20 21 22 23 23 24 24 24 24 24 24 24 24 24 24 24 24 24 25 25 25 27 27 25 24 23 22 21 21 20 19 19 19 19 19 19 19 19 21 22 23 23 23 22 21 20 17 16 16 16 15 15 14 14 14 13 14 13 13 13 12 12 12 11 10 10 10 9 9 9 9 11 12
10 9 8 13 17 14 13 15 16 17 18 18 19 20 21 22 23 23 24 25 24 24 24 24 25 25 25 25 25 25 25 25 27 29 30 29 27 24 23 22 21 21 21 20 20 19 19 19 19 19 20 22 23 25 26 26 26 25 23 20 18 17 17 16 15 15 15 14 14 14 13 14 13 12 12 11 11 11 10 8 8 9 10 10 11
12 13 12 13 19 20 18 15 15 17 18 18 19 20 20 20 21 22 24 25 25 25 25 25 26 26 26 26 26 26 26 27 28 30 32 33 31 27 24 23 23 22 22 22 21 21 20 20 20 19 20 22 23 24 27 29 28 28 28 27 24 22 21 19 18 16 15 15 15 15 15 14 13 12 12 11 11 10 9 9 9 10 11 12 12
11 12 9 10 16 21 22 20 16 16 17 19 19 20 20 20 21 22 23 24 24 25 26 26 26 26 26 27 27 27 26 27 29 31 32 34 35 33 27 24 24 24 23 23 23 22 22 21 20 20 20 21 24 25 26 28 29 30 30 30 29 28 27 27 25 22 19 16 15 15 15 14 14 13 12 11 10 10 9 10 11 12 12 13 14
12 11 10 10 12 16 20 21 19 17 17 18 18 19 20 20 21 21 22 22 23 24 25 26 26 27 27 27 27 27 27 27 29 32 34 34 36 37 33 27 25 25 25 25 25 24 24 23 22 22 21 20 22 24 23 23 25 27 29 30 31 31 31 31 31 31 29 27 24 21 18 16 15 14 13 12 11 11 11 12 12 13 14 14 15
13 13 13 12 12 14 17 19 19 19 18 19 18 19 20 21 21 21 20 21 22 23 25 25 25 25 26 27 27 28 27 27 27 30 34 36 36 37 36 31 27 27 27 26 26 25 25 24 23 23 22 22 22 22 21 21 21 21 23 26 29 31 31 32 33 33 33 34 33 31 28 24 21 18 16 15 14 14 14 14 14 14 15 15 16
14 14 15 15 14 14 16 17 19 19 17 17 17 17 18 18 19 19 19 19 19 20 22 23 24 25 26 26 26 27 28 28 29 30 31 33 35 36 37 35 30 28 28 28 28 27 26 25 24 23 23 24 24 23 23 22 21 20 20 21 22 24 26 29 31 32 33 33 33 33 31 28 25 22 20 19 18 16 15 15 15 15 15 15 15
16 17 16 17 17 17 16 17 20 20 17 14 13 13 14 16 16 15 14 15 18 19 19 18 19 21 24 25 25 26 26 27 29 30 30 31 33 35 37 37 32 29 28 28 28 28 27 27 27 25 24 24 25 26 26 26 24 22 21 20 20 20 21 23 26 28 29 29 30 30 30 29 27 26 25 24 23 21 18 16 16 16 15 15 15
16 17 18 17 18 18 17 17 18 20 20 17 11 11 14 16 16 15 13 14 19 23 23 22 21 21 23 23 23 24 25 25 26 29 30 31 32 34 35 34 31 28 27 27 27 27 28 29 29 28 27 26 27 27 28 30 29 25 22 21 21 22 22 21 22 24 25 26 27 27 27 27 27 28 28 28 28 27 24 21 20 18 17 16 16
15 16 17 17 17 16 15 15 16 16 18 17 13 13 16 15 12 11 11 13 19 24 25 26 26 25 23 21 21 23 24 23 23 25 29 31 32 34 34 29 26 26 25 25 26 27 28 29 31 32 32 29 28 29 30 32 32 29 25 23 23 24 23 21 21 21 22 24 26 27 27 26 26 27 28 28 29 30 30 28 24 20 19 19 18
15 16 17 17 17 16 14 14 15 15 15 14 12 13 14 13 12 14 14 13 16 20 21 22 25 28 28 24 22 22 22 21 21 22 24 28 31 33 33 28 24 25 24 24 25 26 27 28 30 33 36 35 32 31 30 32 34 31 26 25 26 26 24 22 23 22 21 21 22 23 25 24 23 24 25 27 28 30 33 34 30 24 21 21 20
15 16 17 17 17 17 16 15 16 15 13 12 11 11 13 13 13 16 18 17 17 18 19 18 17 21 26 26 24 23 23 23 21 19 21 25 29 33 35 32 27 24 24 24 24 25 26 27 29 31 35 38 39 37 35 34 34 32 29 28 29 27 23 21 21 22 23 23 21 20 20 20 20 20 21 22 23 25 27 31 32 29 26 23 22
15 16 17 17 16 17 17 17 16 14 11 11 10 10 10 10 12 14 16 18 19 19 18 18 16 17 22 26 27 26 25 24 26 25 23 23 26 31 35 35 32 27 24 24 25 25 25 26 28 30 34 37 40 41 41 39 37 35 34 33 31 28 24 21 19 19 20 21 21 21 20 20 20 20 21 21 21 21 22 23 26 28 27 26 24
16 16 16 16 16 16 16 16 16 14 11 11 11 12 11 10 11 13 14 14 15 17 18 19 21 21 20 22 24 27 26 23 23 26 27 26 26 30 34 36 35 31 28 26 25 26 27 27 27 28 31 34 37 39 41 42 42 41 40 38 35 31 27 23 19 18 19 18 19 20 20 21 21 21 21 21 21 21 21 21 22 24 26 26 26
16 16 16 16 16 16 16 15 16 15 13 11 12 14 13 12 12 13 14 14 14 15 16 18 20 21 21 20 19 22 27 26 24 25 29 28 27 29 33 36 35 34 34 33 30 28 28 28 28 28 29 31 34 35 37 39 41 42 42 42 40 36 32 26 21 20 20 20 20 21 21 22 22 22 22 21 20 20 21 21 21 22 24 26 26
16 16 16 16 16 16 16 16 15 14 13 13 13 14 14 13 12 11 11 15 16 15 14 16 18 21 24 24 20 18 22 24 23 23 26 27 27 27 27 30 33 34 36 38 37 34 31 29 29 30 31 30 30 31 33 36 38 38 39 39 40 40 37 31 25 23 23 23 23 23 24 25 25 25 24 22 21 21 21 21 22 22 22 23 23
15 16 16 16 16 16 16 15 14 14 14 14 13 12 12 12 12 10 9 11 14 14 13 15 18 21 24 25 23 19 18 18 17 19 22 24 25 26 23 22 26 31 35 39 41 39 35 33 30 29 29 28 28 29 31 33 34 34 34 35 37 40 38 32 27 26 26 25 25 25 25 25 25 26 25 24 24 24 22 21 21 21 21 21 21
13 15 16 17 16 15 14 14 14 14 14 14 13 13 13 12 12 12 10 10 12 14 15 14 16 18 19 20 21 21 19 17 16 16 18 20 20 18 16 14 14 20 27 35 39 39 38 36 34 32 29 27 27 29 30 31 32 33 34 35 38 39 36 30 28 27 27 26 26 25 25 24 24 24 24 25 26 26 25 23 22 21 21 21 21
13 15 16 17 16 14 13 12 12 13 14 14 14 14 14 13 12 12 13 12 12 14 16 16 16 18 18 19 19 18 18 17 16 15 15 15 14 11 10 10 11 14 18 22 26 31 34 36 38 37 34 29 26 25 25 27 28 30 32 34 37 38 35 30 28 27 26 25 25 25 24 24 24 24 23 24 25 25 24 24 24 23 22 21 21
13 14 16 16 15 13 12 12 12 12 13 14 13 13 14 16 16 16 18 18 17 15 17 20 21 21 22 22 21 19 19 18 16 15 16 16 16 14 12 13 15 15 14 12 14 21 28 34 36 36 34 32 29 26 26 27 27 28 29 29 30 31 31 30 29 29 27 26 25 24 24 24 24 24 24 24 25 24 24 25 26 25 23 22 23
14 14 14 15 14 14 14 14 13 12 12 12 13 14 14 16 17 18 21 23 21 17 17 19 19 20 23 25 24 22 24 26 25 23 23 23 22 20 18 16 15 13 10 8 11 18 23 27 30 32 34 35 33 30 30 30 29 29 30 29 27 26 26 27 28 28 27 26 26 25 24 24 24 24 25 25 26 25 25 26 27 27 25 24 23
16 15 14 14 14 15 16 15 14 13 13 12 13 14 15 16 16 17 20 21 21 19 19 17 14 13 17 21 22 22 24 27 28 28 28 26 23 22 21 19 17 15 12 11 16 21 23 22 23 28 34 36 34 30 28 28 29 28 27 27 27 27 26 26 25 25 25 26 26 26 25 25 25 24 25 25 25 25 25 27 28 27 27 26 25
16 16 16 15 15 15 16 16 15 15 14 14 13 13 14 15 15 16 17 18 20 24 23 16 11 8 8 11 15 17 17 18 20 21 21 21 21 21 20 19 18 16 14 16 21 24 23 21 23 28 32 35 35 33 30 28 27 27 26 26 25 26 26 26 25 24 24 24 25 26 27 27 27 26 26 26 26 26 26 27 27 27 27 27 26
13 15 16 17 17 17 16 17 17 16 15 15 15 14 13 14 15 16 16 17 20 23 22 17 11 8 6 8 11 13 13 13 14 16 17 18 20 20 19 18 18 17 18 21 26 26 23 24 27 29 32 35 37 35 31 28 27 26 26 26 25 25 26 26 27 27 26 25 25 26 27 27 28 28 28 29 28 28 28 28 28 28 28 27 27
12 13 15 17 18 18 17 17 18 18 16 16 16 16 15 14 14 15 15 16 18 18 18 19 15 9 8 10 8 7 9 12 13 15 18 19 20 20 20 20 19 19 21 25 28 26 24 26 29 30 33 36 35 31 27 27 28 27 26 26 27 27 27 26 27 29 28 27 27 27 26 27 27 28 28 29 29 29 29 29 29 29 28 28 27
12 14 16 17 18 17 17 17 18 18 18 17 16 16 16 15 15 14 14 15 16 15 16 18 16 12 13 13 7 4 7 10 11 12 15 17 18 19 21 21 20 19 21 25 29 28 26 26 26 28 31 33 30 26 25 25 26 27 28 28 28 28 27 26 26 27 27 27 28 28 28 28 28 28 28 29 29 29 28 29 29 30 30 29 28
12 14 17 18 17 17 17 17 17 17 18 19 18 18 18 17 16 15 14 14 15 15 15 16 16 17 18 14 7 4 5 6 7 9 12 14 17 19 20 19 19 18 19 23 28 29 28 27 27 27 29 30 28 25 25 25 25 27 28 28 28 28 27 27 27 27 27 27 28 29 29 28 28 28 29 29 30 29 28 27 28 29 30 29 28
13 15 17 18 18 18 18 18 18 18 19 20 19 19 19 18 17 17 16 14 14 15 15 15 15 17 17 13 9 9 9 8 9 10 11 12 16 19 21 20 19 17 17 19 23 25 26 27 28 28 30 31 29 25 24 25 26 27 26 27 28 28 28 28 28 28 28 28 28 28 28 28 29 29 29 28 29 29 28 29 29 29 30 29 28
14 16 18 17 17 18 19 19 19 19 19 18 18 18 19 18 17 17 17 15 14 14 14 14 14 14 15 14 13 15 15 12 8 7 9 12 15 18 21 23 22 20 18 18 20 22 23 24 26 26 27 29 29 27 25 25 26 26 26 27 28 29 29 30 29 29 29 29 28 28 28 29 30 30 30 28 28 28 29 29 29 29 29 28 27
15 17 18 17 16 17 19 19 18 18 18 17 18 18 19 19 18 17 16 16 15 13 13 13 13 13 13 13 14 17 19 16 9 5 7 10 12 15 17 19 19 18 17 17 18 20 22 25 27 26 25 26 27 28 27 27 26 27 27 27 26 28 30 30 30 30 31 30 29 29 30 30 31 31 30 30 30 29 29 29 28 28 28 28 26
16 17 18 17 17 17 17 17 18 18 17 17 17 17 18 19 19 19 18 17 17 15 14 14 14 13 12 12 14 17 19 18 14 9 7 7 10 13 15 15 15 16 16 16 17 18 20 23 26 26 26 25 25 25 26 27 28 29 30 29 29 30 31 30 29 30 30 30 30 30 30 30 31 30 30 31 31 30 30 29 28 28 29 29 28
16 17 17 18 18 18 18 18 18 17 16 17 17 17 18 19 19 19 19 19 18 17 16 15 16 15 13 13 16 17 17 17 16 13 10 7 7 9 12 14 15 15 15 15 16 16 16 18 20 22 25 26 25 25 26 26 26 27 29 29 29 29 30 31 31 30 30 31 31 29 28 27 28 28 29 30 29 29 28 28 28 29 29 29 29
16 17 17 18 18 18 18 18 18 17 16 16 17 17 18 19 18 19 20 19 19 18 17 16 16 15 14 15 16 17 15 14 15 14 12 9 6 7 11 14 17 18 17 17 18 18 18 18 18 18 19 20 21 22 23 24 25 26 27 28 28 27 27 29 31 31 31 31 30 27 27 28 28 28 28 28 28 28 28 28 27 28 27 26 26
17 17 18 18 19 19 19 19 19 18 17 16 17 18 18 19 18 18 19 19 19 19 17 17 16 15 14 15 15 14 12 12 12 13 14 12 10 9 9 13 18 21 21 20 20 21 22 22 22 22 21 20 20 20 19 19 20 21 22 22 24 25 26 28 31 32 31 29 27 26 26 28 28 27 26 27 27 27 28 27 26 26 26 26 27
18 18 18 18 19 19 19 19 19 18 17 17 17 18 19 19 18 18 18 18 18 18 17 17 16 15 15 14 13 12 11 11 12 13 14 14 13 10 9 12 17 21 21 20 21 22 23 24 24 25 24 24 23 24 24 23 22 22 22 21 20 22 23 24 26 28 27 26 26 27 26 26 26 25 26 27 27 26 26 27 26 26 27 28 28
20 19 18 18 18 18 18 18 18 18 17 17 17 16 17 17 17 18 18 17 17 17 17 16 15 15 15 14 13 12 11 12 12 13 13 13 13 12 10 12 15 17 18 18 20 21 22 23 24 25 26 26 26 26 27 28 28 27 27 26 25 25 24 23 24 25 23 22 22 24 25 25 26 26 28 30 29 26 25 27 28 27 28 29 29
19 19 18 18 18 18 18 18 18 18 17 17 17 16 15 15 15 16 17 17 17 17 16 15 15 14 14 13 12 12 12 11 12 12 12 12 12 12 10 10 12 14 14 14 16 18 19 20 21 22 24 25 26 27 28 29 29 30 30 30 29 29 29 30 31 31 29 26 24 23 22 22 23 23 26 29 29 26 25 27 28 28 28 29 30
19 18 18 18 18 18 17 17 17 17 17 17 17 15 14 14 14 15 16 16 16 16 15 15 14 14 13 13 13 12 12 11 11 11 12 12 11 11 11 10 11 12 11 11 12 14 16 17 18 19 20 21 23 24 26 26 28 29 30 31 31 32 34 36 38 38 37 35 33 30 27 25 24 23 23 25 26 26 27 28 29 30 30 30 30
18 18 17 17 17 18 17 16 16 16 15 15 15 15 14 13 13 14 14 15 15 15 15 14 14 13 13 13 13 12 12 12 11 11 12 12 11 11 10 9 9 10 10 9 9 10 13 15 16 16 18 19 20 21 23 24 24 25 27 28 29 31 33 35 37 38 39 39 38 38 36 34 32 28 26 25 25 25 26 27 29 31 31 31 30
17 17 17 17 17 17 17 16 16 15 15 14 14 14 14 13 12 12 13 13 14 14 13 13 13 12 12 12 13 13 12 12 12 12 12 12 12 11 10 9 8 8 8 7 7 9 11 13 14 15 16 17 17 18 19 20 21 22 24 25 26 28 30 31 33 35 36 38 39 40 40 39 37 34 31 29 28 27 27 28 30 31 32 31 30
16 17 17 17 16 17 16 16 16 15 14 14 14 13 13 13 12 12 12 12 12 13 13 12 12 11 11 11 12 12 12 12 12 12 12 12 12 11 10 9 8 8 7 7 9 11 12 13 14 14 14 15 15 15 15 16 18 20 21 23 25 26 27 29 30 30 30 32 33 35 36 38 37 36 35 33 31 29 29 30 30 31 32 33 32
16 17 17 17 16 16 15 15 15 15 15 15 14 13 12 12 12 11 11 11 11 12 12 12 11 10 10 10 10 10 10 10 10 10 10 11 11 11 10 10 10 9 8 9 12 13 13 14 14 14 14 15 15 14 13 13 14 15 16 18 20 22 23 25 26 26 25 24 24 25 26 28 29 30 30 29 28 27 27 29 30 30 31 31 31
Wind_Direction
196 193 194 198 197 195 198 199 200 202 202 204 205 205 207 207 208 206 204 206 205 202 204 204 203 205 206 207 209 207 207 208 209 207 209 213 217 220 211 206 213 215 216 220 220 218 214 216 224 225 225 230 231 231 227 216 212 222 224 219 221 218 208 230 256 270 279 285 289 291 301 308 298 293 298 296 295 305 313 306 300 302 291 260 258
201 199 194 196 198 197 199 199 198 202 203 204 206 206 206 206 207 207 206 206 207 206 206 206 207 207 207 208 210 211 208 208 211 210 211 213 215 219 215 209 214 217 216 220 222 220 217 218 221 221 222 225 228 231 231 227 216 212 216 219 224 222 209 216 243 263 272 276 277 281 283 281 285 293 292 292 295 295 298 302 301 302 306 286 268
201 203 198 195 196 197 199 200 199 201 203 205 207 207 206 205 204 206 208 207 207 209 209 209 208 208 209 208 209 212 211 209 212 214 213 214 215 219 218 214 216 218 219 220 220 220 219 220 222 221 220 221 225 230 232 235 233 223 217 217 223 226 215 211 227 249 265 272 273 276 279 280 287 291 286 283 286 287 288 294 300 299 303 307 283
202 204 201 196 197 197 198 201 202 203 205 207 208 208 207 206 203 205 209 210 208 208 210 211 209 208 209 209 208 210 212 211 212 214 215 215 216 219 221 220 219 220 221 222 221 221 221 221 223 223 222 220 221 226 229 231 236 236 230 225 227 234 231 224 229 239 255 267 268 270 277 280 281 282 283 283 281 282 283 285 293 293 291 307 300
206 208 205 200 199 197 199 202 204 206 208 209 209 211 210 208 205 205 208 212 211 208 209 211 210 209 209 210 209 209 211 212 212 213 215 216 216 219 221 222 224 224 224 225 224 222 222 223 224 222 222 222 220 222 226 226 228 231 230 229 228 231 234 234 234 235 244 255 262 265 268 271 275 274 275 279 282 284 284 281 284 285 283 296 303
214 207 201 205 206 201 202 205 205 207 210 212 212 212 214 212 209 207 208 212 213 211 209 209 210 211 210 211 212 211 212 213 213 213 214 215 215 218 221 222 223 225 226 227 227 225 224 225 225 224 223 223 223 222 224 224 225 225 225 227 228 227 228 230 231 232 239 248 256 261 262 263 266 266 266 270 276 283 290 291 286 282 280 285 295
238 215 197 200 205 205 209 209 208 210 210 213 215 213 215 216 213 211 209 211 214 214 212 209 209 212 212 213 214 214 213 213 214 214 215 216 215 216 220 221 222 224 225 227 227 226 226 226 225 224 224 224 225 224 223 223 223 225 225 226 227 227 227 227 227 230 236 243 249 252 256 258 258 260 263 263 264 271 280 283 281 278 280 284 286
308 265 218 205 201 205 215 213 211 214 212 212 217 218 218 218 217 216 213 212 215 217 217 213 210 211 213 214 215 215 214 214 214 214 214 216 216 217 220 221 222 222 223 227 228 228 228 227 226 226 225 225 225 225 225 223 222 223 224 224 225 226 228 228 228 229 234 240 245 249 255 259 259 263 268 263 255 259 266 270 275 280 283 284 281
333 297 265 252 224 208 213 215 212 215 216 214 215 218 221 220 219 219 218 218 217 218 220 219 215 213 213 214 216 216 216 216 214 214 213 213 215 218 219 221 222 223 223 225 226 228 229 229 228 227 225 225 225 226 226 225 224 225 224 223 224 225 227 229 230 230 233 239 244 249 253 255 255 255 256 254 249 255 262 265 271 278 281 285 284
336 309 278 272 256 227 215 219 216 213 215 217 216 217 221 223 223 222 222 223 222 220 221 223 221 217 214 214 216 217 218 218 216 214 213 212 214 217 219 220 222 224 225 226 227 228 229 231 232 229 227 226 226 226 227 227 226 226 225 223 224 225 228 230 231 232 234 239 244 247 249 251 253 252 254 259 260 263 263 258 264 276 283 287 285
341 339 319 295 284 266 235 223 221 217 214 216 218 218 220 222 225 225 224 225 226 224 223 225 226 224 221 217 216 217 220 221 219 217 216 214 213 215 219 221 223 224 225 226 228 230 230 232 234 232 228 227 228 229 230 230 230 228 227 225 224 223 225 230 234 235 237 241 245 248 251 254 258 261 265 271 274 277 279 274 274 277 278 280 281
348 351 342 316 303 290 266 239 226 223 220 217 218 220 221 222 224 225 225 225 225 225 225 226 226 227 227 225 221 220 222 222 221 220 219 218 216 216 219 222 224 225 227 227 228 230 232 233 235 235 230 225 224 228 233 236 237 235 233 232 230 227 224 227 232 236 240 245 248 249 252 257 261 261 264 272 279 284 289 284 279 275 271 272 274
352 355 339 306 302 299 282 260 239 229 227 225 223 222 222 222 223 224 225 224 223 224 225 226 228 228 230 230 228 226 225 223 222 222 222 221 220 219 221 224 226 227 228 229 230 230 231 233 235 237 237 230 221 221 228 235 239 241 240 239 238 236 232 231 232 235 238 246 252 253 253 256 260 261 261 269 275 275 275 274 274 272 269 268 271
354 349 328 300 299 307 300 282 264 250 239 232 230 230 229 228 228 228 227 226 225 225 225 226 226 227 229 232 233 233 232 227 223 223 223 224 224 223 223 226 230 231 231 232 232 232 231 232 233 234 238 238 226 218 219 226 232 238 241 241 240 239 238 237 237 237 239 242 246 249 249 250 253 255 257 259 260 258 259 264 269 271 271 271 274
357 349 336 322 312 315 317 306 288 275 262 250 241 236 233 234 235 234 234 232 229 228 228 228 229 228 229 230 232 234 235 234 230 227 225 225 226 226 226 228 233 235 235 234 235 235 233 232 233 233 233 236 232 222 219 220 223 228 234 238 239 239 240 241 241 241 241 241 244 246 247 248 250 253 254 253 251 251 254 259 263 267 271 273 275
356 353 345 339 333 327 324 316 305 296 286 276 269 260 252 250 250 249 250 251 248 242 236 233 232 231 230 230 233 236 235 235 234 232 230 228 226 227 227 229 234 238 239 238 236 236 235 233 234 234 232 233 232 228 224 221 221 224 227 230 234 236 238 242 244 245 244 244 245 247 248 248 248 249 250 249 248 249 254 260 259 258 262 266 270
351 348 345 342 342 339 333 324 315 307 300 299 303 300 290 283 280 278 279 282 283 279 274 269 262 254 246 237 234 236 237 237 235 234 233 229 226 225 227 228 232 237 240 241 238 237 236 233 233 234 233 233 232 230 226 223 222 225 227 229 232 235 237 241 244 248 249 248 248 250 253 252 249 247 246 246 247 247 247 251 253 255 259 260 265
348 343 342 341 340 338 334 328 321 314 310 310 319 325 311 296 286 283 282 279 275 271 270 273 276 278 275 264 255 249 244 241 238 236 234 232 227 225 226 227 230 235 238 240 240 239 238 236 233 232 233 233 232 230 228 225 223 224 227 231 234 237 239 240 243 246 248 249 250 251 253 254 253 250 246 245 247 246 243 245 249 254 259 259 263
345 338 336 336 335 332 328 322 320 322 325 326 327 326 321 315 307 301 292 278 269 263 257 253 248 249 257 263 266 268 264 259 254 245 236 233 231 228 225 225 230 235 237 238 239 239 239 239 236 233 233 233 232 230 229 227 225 224 226 230 234 237 239 240 243 244 242 240 242 244 246 247 249 251 251 250 249 247 243 243 245 248 254 256 260
340 334 333 333 332 328 326 324 324 327 333 336 328 315 316 324 325 318 309 295 283 277 271 262 253 247 245 241 243 255 263 269 279 276 256 240 233 230 227 227 231 236 236 237 238 238 237 237 237 235 233 232 231 230 230 229 228 225 223 227 232 235 237 239 241 244 243 239 238 239 240 241 243 246 250 251 251 251 247 244 241 239 244 251 254
336 332 331 332 333 331 330 331 333 333 334 334 328 317 318 321 315 308 301 292 285 281 276 271 263 259 258 253 247 247 244 241 251 268 267 254 243 234 229 228 231 236 237 238 238 238 236 235 236 236 234 234 233 231 229 230 230 227 223 226 231 234 236 238 240 242 243 243 243 241 238 238 239 240 243 244 244 246 247 246 242 237 236 243 249
334 333 331 329 331 332 331 329 330 332 332 328 324 318 314 309 303 300 297 290 282 277 275 272 265 261 263 260 255 253 251 245 240 239 241 244 242 239 236 236 235 236 238 239 238 239 239 238 238 237 236 236 235 233 232 232 232 230 229 230 234 234 234 236 240 242 242 241 242 243 241 240 241 241 241 242 241 239 239 241 242 238 234 236 241
331 330 329 328 329 328 327 327 328 327 326 321 311 299 291 287 287 290 292 290 280 271 271 272 270 268 268 263 255 251 251 251 248 245 242 237 230 230 234 239 241 241 243 245 243 242 243 243 242 241 238 237 238 237 235 234 233 234 235 235 236 235 234 235 238 241 244 244 243 243 241 241 243 243 243 244 245 244 243 242 240 237 235 235 237
329 328 326 327 327 324 323 325 323 320 320 322 311 300 293 285 281 284 289 288 278 268 267 270 269 268 267 264 259 254 252 249 248 250 252 248 240 233 230 231 236 241 246 251 253 251 249 248 248 247 243 241 240 239 238 236 236 237 239 240 239 237 235 235 237 238 240 242 242 243 241 240 241 242 243 244 245 247 248 248 245 240 238 237 237
324 324 324 324 323 323 322 321 319 317 321 323 313 303 299 291 282 282 288 287 280 270 264 266 267 266 265 265 263 262 262 260 256 252 254 255 255 252 243 234 233 236 242 249 256 259 259 257 255 253 250 246 243 241 239 238 237 238 240 242 242 239 236 234 235 236 236 235 236 237 239 239 239 240 242 245 247 248 247 247 247 245 242 239 238
318 318 319 320 319 320 319 318 319 320 320 318 310 302 301 298 290 283 281 287 291 287 278 274 273 269 265 265 267 268 267 267 262 256 258 259 259 262 262 254 244 241 241 245 251 257 264 268 267 263 256 248 244 241 240 239 239 239 239 240 240 239 236 233 231 231 232 232 233 234 235 237 239 241 243 243 244 244 244 243 244 243 242 240 238
310 312 314 315 315 315 316 318 320 319 316 316 317 314 309 304 297 291 283 286 298 302 300 296 292 287 278 272 272 273 272 270 267 264 263 263 263 267 273 273 263 252 246 244 246 252 263 274 282 282 272 258 248 244 243 242 240 238 236 236 237 237 235 231 229 230 230 230 232 234 236 237 238 239 240 239 240 240 239 239 241 241 239 237 236
303 308 310 310 309 308 310 314 316 317 316 316 317 315 312 310 307 303 298 294 295 301 303 299 294 294 294 291 287 285 282 279 278 276 269 265 265 267 269 278 281 267 255 250 245 245 254 266 277 281 276 265 253 245 241 239 238 237 236 235 236 237 235 231 230 231 231 231 232 234 235 237 237 237 236 236 237 236 233 233 236 238 237 235 236
298 305 305 304 304 306 311 312 312 313 313 312 310 308 309 310 309 305 301 299 294 288 288 290 287 282 281 284 287 289 288 285 284 285 283 281 280 276 269 272 273 264 260 263 249 239 243 252 260 267 268 261 251 243 240 238 237 238 238 235 234 233 231 227 227 228 228 229 231 231 232 233 233 233 234 235 236 234 230 229 232 234 233 234 238
293 299 301 301 305 311 314 313 311 309 307 309 310 308 305 306 305 301 297 298 297 291 287 290 289 280 274 275 276 276 276 276 277 279 282 286 287 285 278 275 272 265 260 258 243 234 235 241 248 256 260 257 249 242 239 238 237 238 238 236 233 232 229 224 224 224 225 226 228 229 230 231 231 231 231 233 235 234 231 230 231 231 230 232 236
285 288 292 300 309 314 312 310 310 310 308 308 308 308 306 306 307 305 300 296 297 301 302 300 296 286 278 278 279 278 277 278 277 277 278 279 281 280 275 270 270 268 256 237 231 230 227 229 239 250 257 259 255 246 239 236 236 238 240 237 232 231 232 231 228 224 223 223 226 228 228 229 231 230 230 231 233 234 233 232 231 230 230 231 234
280 284 290 300 308 310 309 308 307 307 308 308 305 305 306 306 308 313 311 302 300 303 303 300 302 304 296 291 291 290 290 289 288 284 280 278 279 280 276 266 258 253 241 230 231 232 228 225 233 243 252 258 258 251 244 240 238 238 239 238 234 231 231 231 230 228 226 224 224 225 227 228 229 229 230 231 232 234 234 232 231 229 229 230 231
284 291 295 298 302 305 307 307 305 303 306 308 305 303 304 304 307 313 314 310 307 304 297 291 295 306 312 311 303 295 295 298 296 292 288 283 280 282 282 273 253 235 222 221 225 226 224 224 229 237 245 250 250 247 245 245 244 241 240 241 241 238 235 230 227 225 227 228 228 228 228 227 227 228 230 230 231 233 234 233 233 231 230 231 231
286 293 295 296 299 302 302 300 300 300 301 304 304 301 300 299 302 306 308 310 311 307 297 290 287 283 297 315 321 314 311 312 306 299 295 291 286 282 282 277 260 238 226 224 222 218 219 226 232 237 243 246 247 246 246 247 248 246 244 243 245 245 243 236 228 223 223 225 229 231 231 230 230 229 230 231 231 232 233 233 233 233 232 232 232
293 295 297 297 297 299 299 299 301 303 302 301 301 300 298 298 297 298 299 302 305 306 303 299 293 286 294 307 326 352 331 322 318 310 302 299 297 289 282 276 264 245 233 229 226 222 223 230 238 244 247 250 251 251 250 251 252 250 247 245 245 247 247 243 237 231 226 225 228 231 232 233 235 234 234 235 235 235 237 237 237 236 235 234 233
303 301 301 301 300 300 301 303 304 305 303 300 298 297 295 293 292 291 292 293 295 297 301 304 305 303 298 295 300 326 313 296 296 301 300 301 301 293 283 275 266 253 240 234 235 235 236 240 247 251 253 254 253 251 251 252 253 252 251 249 248 248 247 245 243 240 236 233 234 234 234 235 237 238 240 242 241 240 241 241 239 238 237 236 236
306 302 301 303 304 303 302 301 299 299 299 297 294 291 288 286 287 291 292 291 291 294 296 300 306 307 302 298 311 323 309 290 291 299 302 308 308 297 282 273 268 262 252 244 241 241 240 242 246 249 250 250 249 248 249 251 252 253 254 253 251 250 249 248 247 244 242 240 238 237 236 237 238 239 241 243 244 243 243 243 243 243 242 240 238
299 295 296 302 303 300 298 297 295 294 294 292 290 288 287 287 289 291 291 291 290 291 295 298 303 306 306 310 322 327 321 318 326 329 317 314 316 307 292 280 271 265 259 254 250 246 243 242 245 247 249 250 249 247 247 249 251 254 254 253 253 252 251 250 249 248 247 246 244 242 240 240 241 240 240 241 242 242 242 244 245 246 246 243 239
292 290 292 299 300 295 293 293 292 291 292 291 290 290 288 288 288 288 290 293 293 293 297 299 299 300 305 315 326 329 325 322 327 337 321 310 307 303 294 283 273 265 261 259 259 258 256 255 254 253 252 253 252 250 249 249 251 254 254 253 253 253 252 250 249 248 248 247 246 246 245 244 244 243 242 242 243 243 243 244 244 244 246 246 242
295 292 293 297 298 295 291 289 288 289 288 287 287 289 289 289 291 290 290 293 294 295 298 299 296 296 306 321 330 331 323 314 307 305 301 296 298 299 294 288 283 280 276 272 267 262 261 262 262 259 258 257 256 254 252 251 251 252 252 252 251 252 253 252 250 249 248 248 247 247 247 247 248 247 244 243 243 243 243 244 243 243 244 245 245
302 299 298 298 296 293 289 286 285 286 287 287 287 288 289 290 290 290 290 291 292 294 295 296 295 295 301 313 322 324 316 305 299 297 291 287 297 302 299 299 303 306 305 302 295 286 278 274 271 268 266 266 265 263 260 258 255 253 253 252 251 250 251 252 253 253 252 251 250 248 247 248 248 247 246 245 245 245 244 242 241 241 241 241 242
305 303 300 298 295 292 288 286 286 287 288 288 287 287 291 293 292 291 290 290 290 292 293 294 295 297 299 306 317 322 315 304 300 301 303 307 314 305 299 303 310 314 319 323 322 318 312 306 300 295 290 286 284 280 277 275 272 269 266 263 259 257 256 255 256 256 256 256 256 255 254 254 252 249 248 249 249 249 248 245 243 242 241 239 239
302 301 299 296 294 291 288 286 287 287 287 287 287 288 292 294 292 290 289 288 288 290 292 293 295 299 302 307 316 321 317 308 308 311 313 317 322 320 310 306 304 305 311 318 319 316 313 311 309 307 307 309 308 305 302 301 297 292 288 281 273 270 269 265 263 262 262 263 266 265 261 258 256 254 253 251 249 250 251 250 245 240 239 240 241
300 298 297 295 292 290 288 288 288 287 286 286 288 290 291 289 287 285 286 287 289 290 291 293 297 299 303 309 316 321 319 314 313 315 316 317 320 326 327 316 308 307 311 315 314 312 311 310 308 305 304 305 305 302 302 304 305 306 310 309 299 291 289 286 281 278 276 276 276 273 268 265 262 260 259 258 256 255 255 252 246 241 239 240 240
302 298 297 294 291 289 289 289 289 290 289 288 288 289 289 288 287 287 287 288 290 292 292 295 298 300 304 309 314 317 318 316 314 314 316 316 317 321 324 322 319 319 319 318 316 317 316 315 312 309 305 303 301 298 297 298 299 301 304 306 303 299 300 298 294 291 292 294 292 286 282 278 273 266 262 261 261 261 259 256 253 248 243 239 238
302 300 297 294 291 290 290 290 290 290 290 289 287 287 288 288 289 291 291 291 292 293 294 296 298 301 305 309 311 313 316 315 314 314 315 315 315 317 321 324 327 329 328 327 327 327 326 323 320 318 314 310 307 303 300 298 297 297 297 297 296 294 292 289 286 286 288 292 293 292 292 290 286 279 272 268 266 265 264 263 261 256 249 244 241
300 297 295 295 295 293 291 291 290 290 291 293 291 289 290 290 290 291 293 293 292 292 293 295 298 302 305 307 310 313 315 314 313 313 314 315 317 317 319 324 330 332 333 335 338 339 338 335 332 328 325 322 318 314 310 306 302 299 297 294 292 290 288 286 285 285 285 285 284 284 285 285 286 287 285 279 274 269 267 267 266 262 259 254 248
298 296 295 297 299 297 294 292 291 291 293 296 296 294 294 294 293 293 294 294 293 293 293 295 299 304 307 309 311 313 315 316 317 317 317 320 322 321 320 326 334 336 335 337 344 350 353 352 348 344 340 336 331 327 324 320 316 312 308 304 300 296 293 291 289 287 286 284 282 281 281 280 280 280 282 283 281 275 270 268 268 266 264 261 255
299 299 300 299 298 298 297 295 294 294 295 297 298 298 298 297 296 297 298 297 296 296 297 299 302 305 307 310 313 316 317 320 322 324 323 324 325 325 326 334 342 342 337 340 352 3 8 9 8 5 360 355 350 346 342 338 334 329 325 321 317 311 306 301 297 294 291 288 285 282 281 280 278 276 275 276 279 278 274 272 272 272 271 270 264
302 303 305 303 300 299 300 299 298 298 297 296 297 298 299 299 298 299 300 300 300 300 300 302 304 307 309 312 315 319 322 325 327 330 331 331 331 333 338 347 356 358 358 5 16 23 24 23 21 19 14 8 3 358 354 352 349 345 341 337 333 328 322 316 312 306 300 295 291 287 283 280 277 274 272 271 272 273 273 273 273 273 272 270 268
307 307 307 305 303 302 302 302 302 300 298 297 296 296 297 298 298 300 303 304 302 302 303 305 308 311 314 316 320 325 330 334 337 341 342 342 344 347 352 359 5 8 14 24 30 32 30 26 23 22 19 15 11 5 359 353 351 351 350 343 335 331 328 324 320 316 311 306 300 294 289 285 280 275 271 268 267 267 269 272 273 273 271 269 267